User: anonymous   Login
Location: Caltech
(34.1382°N, 118.1253°W)
Time: 16:28:54
(UTC-08:00)
Language:

Iridium 95 - Orbit

View from above orbital plane
View from above orbital plane
View from above satellite
View from above satellite

Ground track
Ground track

The orbit data is extracted from the following two-line orbital elements,

1 27375U 02005D   14328.45981487  .00000286  00000-0  95102-4 0  5325
2 27375 086.3959 318.6172 0002142 106.9636 253.1795 14.34219878676798
Epoch (UTC): 24 November 2014 11:02:08
Eccentricity: 0.0002142
inclination: 86.3959°
perigee height: 776 km
apogee height: 779 km
right ascension of ascending node: 318.6172°
argument of perigee: 106.9636°
revolutions per day: 14.34219878
mean anomaly at epoch: 253.1795°
orbit number at epoch: 67679

The dashed part of the orbit path shows where the satellite is in the earth's shadow,  

DLR